This demonstration page uses our WeatherBlox Daily Observations layout. Learn more.

Left ArrowRight Arrow

Hourly Observations for September 7, 2020

Temp ( °F °C ) Dew Point ( °F °C ) Humidity (%) Winds ( mph kmh ) Pressure ( in mb ) Visibility ( mi km ) Precip ( " mm )
12:54 am 00:54 Clear 72 22.2 53 11.7 52 52 N 15 24 29.85 1011 10 16.0934 0 0
1:54 am 01:54 Clear 70 21.1 52 11.1 53 53 NNE 13 20 29.86 1011 10 16.0934 0 0
2:54 am 02:54 Clear 67 19.4 52 11.1 59 59 NNE 12 19 29.87 1012 10 16.0934 0 0
3:54 am 03:54 Clear 65 18.3 52 11.1 63 63 N 10 17 29.89 1012 10 16.0934 0 0
4:54 am 04:54 Clear 61 16.1 52 11.1 72 72 NNE 7 11 29.89 1012 10 16.0934 0 0
5:54 am 05:54 Clear 60 15.6 52 11.1 75 75 N 8 13 29.89 1012 10 16.0934 0 0
6:54 am 06:54 Clear 55 12.8 50 10 83 83 NNE 6 9 29.9 1013 10 16.0934 0 0
7:54 am 07:54 Sunny 58 14.4 52 11.1 81 81 N 5 7 29.9 1013 9 14.48406 0 0
8:54 am 08:54 Sunny 64 17.8 48 8.9 56 56 ENE 15 24 29.89 1012 9 14.48406 0 0
9:54 am 09:54 Sunny 68 20 44 6.7 42 42 E 14 22 29.88 1012 9 14.48406 0 0
10:54 am 10:54 Sunny 71 21.7 44 6.7 38 38 E 14 22 29.86 1011 9 14.48406 0 0
11:54 am 11:54 Sunny 74 23.3 44 6.7 34 34 E 14 22 29.82 1010 9 14.48406 0 0
12:54 pm 12:54 Sunny 76 24.4 46 7.8 35 35 E 14 22 29.78 1008 9 14.48406 0 0
1:54 pm 13:54 Sunny 78 25.6 47 8.3 33 33 ENE 10 17 29.79 1009 9 14.48406 0 0
2:54 pm 14:54 Cloudy 75 23.9 46 7.8 36 36 NE 16 26 29.77 1008 9 14.48406 0 0
3:54 pm 15:54 Cloudy 74 23.3 44 6.7 34 34 NE 16 26 29.77 1008 9 14.48406 0 0
4:54 pm 16:54 Cloudy 73 22.8 43 6.1 34 34 NE 17 28 29.77 1008 9 14.48406 0 0
5:54 pm 17:54 Cloudy 72 22.2 43 6.1 35 35 NNE 20 31 29.78 1009 9 14.48406 0 0
6:54 pm 18:54 Cloudy 70 21.1 41 5 35 35 NNE 20 31 29.81 1009 9 14.48406 0 0
7:54 pm 19:54 Cloudy 69 20.6 40 4.4 35 35 NNE 18 30 29.84 1010 10 16.0934 0 0
8:54 pm 20:54 Cloudy with Light Rain 65 18.3 44 6.7 47 47 NNE 16 26 29.87 1012 9 14.48406 0.001 0.001
9:54 pm 21:54 Cloudy 61 16.1 46 7.8 58 58 NNE 26 43 29.91 1013 10 16.0934 0.02 0.508
10:54 pm 22:54 Cloudy 59 15 44 6.7 58 58 NNE 25 41 29.94 1014 10 16.0934 0 0
11:54 pm 23:54 Cloudy with Light Rain 53 11.7 46 7.8 77 77 NE 20 31 29.98 1015 10 16.0934 0.001 0.001

Powered by AerisWeather